GW3985 Weather Reports


time (UTC)temp
C
wind
direction
speed
KPH
gust
KPH
rain 1hr
cm
rain 24hr
cm
rain mn
cm
humidity
%
barometer
mb
20260505125017 3 194 1.6 4.8 0.05 0.61 0.13 92 1016.3
20260505124037 3 245 0.0 4.8 0.08 0.61 0.13 92 1016.0
20260505123015 4 82 0.0 4.8 0.05 0.58 0.10 92 1015.7
20260505122015 4 149 1.6 4.8 0.05 0.56 0.08 92 1015.8
20260505121015 5 22 0.0 3.2 0.08 0.56 0.08 93 1015.6
20260505120036 5 41 0.0 1.6 0.05 0.53 0.05 93 1015.6
20260505115016 5 264 0.0 1.6 0.05 0.53 0.05 93 1015.5
20260505114016 5 340 0.0 1.6 0.05 0.51 0.05 92 1015.5
20260505113017 5 75 0.0 1.6 0.05 0.51 0.05 92 1015.4
20260505112015 5 265 0.0 1.6 0.03 0.51 0.03 92 1015.5
20260505111015 5 258 0.0 1.6 0.00 0.48 0.00 91 1015.3
20260505102117 6 276 0.0 1.6 0.00 0.48 0.00 92 1014.7
20260505101015 6 260 0.0 1.6 0.00 0.48 0.00 92 1014.5
20260505100015 6 252 0.0 1.6 0.00 0.48 0.00 93 1014.4
20260505095016 6 125 0.0 1.6 0.00 0.48 0.00 93 1014.3
20260505094016 6 0.0 0.0 0.00 0.48 0.00 92 1014.5
20260505093017 6 0.0 0.0 0.00 0.48 0.00 92 1014.6
20260505092017 6 0.0 0.0 0.00 0.48 0.00 91 1014.7
20260505091037 7 0.0 0.0 0.00 0.48 0.00 91 1014.6
20260505090015 7 0.0 0.0 0.00 0.48 0.00 91 1014.4
20260505085015 7 125 0.0 1.6 0.00 0.48 0.00 91 1014.5
20260505084016 7 0.0 0.0 0.00 0.48 0.00 90 1014.6
20260505083016 7 125 0.0 1.6 0.00 0.48 0.00 90 1014.7
20260505082016 7 125 1.6 4.8 0.00 0.48 0.00 91 1014.9
20260505081017 7 136 0.0 1.6 0.00 0.48 0.00 92 1015.0
20260505080017 7 0.0 0.0 0.00 0.48 0.00 92 1015.1
20260505075015 7 0.0 0.0 0.00 0.48 0.00 91 1015.3
20260505074015 7 132 0.0 1.6 0.00 0.48 0.00 91 1015.4
20260505073016 7 132 0.0 1.6 0.00 0.48 0.00 92 1015.5
20260505072016 7 141 0.0 3.2 0.00 0.48 0.00 92 1015.4
20260505071016 7 140 0.0 3.2 0.00 0.48 0.00 93 1015.7
20260505070017 7 109 0.0 1.6 0.00 0.48 0.00 93 1015.8
20260505065034 7 109 0.0 1.6 0.00 0.48 0.00 93 1015.9
20260505064015 7 109 0.0 1.6 0.00 0.48 0.00 93 1015.9
20260505063016 7 79 0.0 1.6 0.03 0.48 0.00 93 1015.9
20260505062036 7 0.0 0.0 0.03 0.48 0.00 93 1015.9
20260505061036 7 0.0 0.0 0.05 0.48 0.00 93 1016.0
20260505060037 7 0.0 0.0 0.08 0.48 0.00 92 1016.0
20260505055017 7 79 0.0 1.6 0.15 0.48 0.48 92 1015.9
20260505054015 7 0.0 0.0 0.33 0.48 0.48 92 1015.8
20260505053055 7 0.0 0.0 0.33 0.46 0.46 92 1016.0
20260505052015 7 0.0 0.0 0.36 0.46 0.46 91 1016.1
20260505051016 7 78 0.0 1.6 0.36 0.43 0.43 91 1016.4
20260505041015 9 121 0.0 1.6 0.08 0.08 0.08 81 1016.2
20260505040016 10 78 0.0 1.6 0.05 0.05 0.05 77 1016.0
20260505035016 11 80 0.0 3.2 0.03 0.03 0.03 70 1016.0
20260505034016 11 0.0 0.0 0.00 0.00 0.00 62 1015.7
20260505033017 11 0.0 0.0 0.00 0.00 0.00 60 1015.5
20260505032035 11 0.0 0.0 0.00 0.00 0.00 60 1015.2
20260505031015 11 0.0 0.0 0.00 0.00 0.00 60 1015.1
20260505030016 11 0.0 0.0 0.00 0.00 0.00 60 1014.9
20260505025016 11 0.0 0.0 0.00 0.00 0.00 60 1014.9
20260505024016 11 0.0 0.0 0.00 0.00 0.00 60 1014.8
20260505023037 11 0.0 0.0 0.00 0.00 0.00 60 1014.6
20260505022017 11 277 0.0 1.6 0.00 0.00 0.00 60 1014.8
20260505021015 11 3 0.0 1.6 0.00 0.00 0.00 59 1014.7
20260505020015 12 65 0.0 4.8 0.00 0.00 0.00 55 1014.7
20260505015015 12 46 0.0 3.2 0.00 0.00 0.00 53 1014.3
20260505014036 12 82 0.0 1.6 0.00 0.00 0.00 53 1013.7
20260505013016 13 114 0.0 1.6 0.00 0.00 0.00 52 1014.1
20260505012017 13 53 0.0 3.2 0.00 0.00 0.00 50 1014.1
20260505011017 14 66 1.6 9.7 0.00 0.00 0.00 47 1013.8
20260505010015 14 326 0.0 3.2 0.00 0.00 0.00 45 1013.7
20260505005015 15 273 0.0 3.2 0.00 0.00 0.00 44 1013.5
20260505004016 15 46 1.6 4.8 0.00 0.00 0.00 42 1013.5
20260505003036 15 64 0.0 6.4 0.00 0.00 0.00 41 1013.4
20260505002017 16 331 1.6 4.8 0.00 0.00 0.00 39 1013.2
20260505001017 16 270 0.0 3.2 0.00 0.00 0.00 37 1013.1
20260505000014 16 321 1.6 6.4 0.00 0.00 0.00 36 1013.0
20260504235015 16 298 1.6 6.4 0.00 0.00 0.00 36 1012.9
20260504234035 16 284 0.0 3.2 0.00 0.00 0.00 36 1013.2
20260504233016 17 45 1.6 8.0 0.00 0.00 0.00 36 1013.0
20260504232016 17 299 0.0 4.8 0.00 0.00 0.00 36 1013.0
20260504231017 17 235 3.2 11.3 0.00 0.00 0.00 36 1012.5
20260504230057 17 284 3.2 12.9 0.00 0.00 0.00 34 1012.2
20260504225015 17 346 1.6 6.4 0.00 0.00 0.00 33 1012.1
20260504224015 18 331 4.8 12.9 0.00 0.00 0.00 32 1012.1
20260504223016 19 4 3.2 12.9 0.00 0.00 0.00 28 1011.9
20260504222016 20 13 1.6 6.4 0.00 0.00 0.00 26 1011.9
20260504221016 20 330 1.6 11.3 0.00 0.00 0.00 26 1011.9
20260504220017 21 273 0.0 1.6 0.00 0.00 0.00 26 1011.6
20260504215017 21 315 0.0 1.6 0.00 0.00 0.00 25 1011.6
20260504214015 21 50 1.6 6.4 0.00 0.00 0.00 25 1011.7
20260504213015 22 57 1.6 4.8 0.00 0.00 0.00 24 1011.8
20260504211516 22 53 1.6 6.4 0.00 0.00 0.00 24 1012.0
20260504210516 22 92 1.6 4.8 0.00 0.00 0.00 25 1012.1
20260504205517 23 97 1.6 12.9 0.00 0.00 0.00 24 1012.1
20260504204517 23 68 1.6 4.8 0.00 0.00 0.00 25 1012.2
20260504203515 22 81 1.6 6.4 0.00 0.00 0.00 26 1012.3
20260504202515 22 22 1.6 8.0 0.00 0.00 0.00 25 1012.4
20260504201535 21 344 1.6 4.8 0.00 0.00 0.00 25 1012.4
20260504200516 21 314 1.6 6.4 0.00 0.00 0.00 25 1012.5
20260504195517 21 57 1.6 6.4 0.00 0.00 0.00 26 1012.5
20260504194517 21 289 3.2 12.9 0.00 0.00 0.00 26 1012.4
20260504193537 20 285 3.2 12.9 0.00 0.00 0.00 26 1012.5
20260504192535 20 39 1.6 8.0 0.00 0.00 0.00 26 1012.5
20260504191515 20 334 1.6 11.3 0.00 0.00 0.00 26 1012.5
20260504190515 20 347 3.2 11.3 0.00 0.00 0.00 25 1012.5
20260504185516 20 67 1.6 3.2 0.00 0.00 0.00 24 1012.5
20260504184536 21 100 0.0 3.2 0.00 0.00 0.00 23 1012.5
20260504183517 21 46 1.6 9.7 0.00 0.00 0.00 23 1012.5
20260504182517 22 2 0.0 1.6 0.00 0.00 0.00 23 1012.6
20260504181515 22 26 1.6 6.4 0.00 0.00 0.00 21 1012.7
20260504180515 23 260 0.0 3.2 0.00 0.00 0.00 22 1012.7
20260504175516 23 61 1.6 8.0 0.00 0.00 0.00 22 1012.8
20260504174516 22 125 1.6 11.3 0.00 0.00 0.00 22 1013.0
20260504173517 22 90 1.6 3.2 0.00 0.00 0.00 22 1013.2
20260504172517 22 193 1.6 4.8 0.00 0.00 0.00 24 1013.3
20260504171535 22 251 0.0 4.8 0.00 0.00 0.00 23 1013.5
20260504170515 21 112 1.6 4.8 0.00 0.00 0.00 24 1013.6
20260504150517 17 206 1.6 8.0 0.00 0.00 0.00 29 1014.5